Location: *
(2.5500°S, 65.9667°W)
Time: 03:03:30
(UTC+00:00)

DELTA-4 R/B - Pass Details

Date: 22 May 2022
Orbit: 448 x 34502 km, 13.4° (Epoch: 04 July)

Event Time Altitude Azimuth Distance (km) Brightness Sun altitude
Rises 23:20:44 0° 255° (WSW) 4,338 7.8 -15.0°
Reaches altitude 10° 23:22:29 10° 250° (WSW) 3,892 7.4 -15.4°
Maximum altitude 06:49:30 68° 56° (ENE) 27,376 10.6 -49.5°
Drops below altitude 10° 08:53:30 10° 70° (ENE) 9,369 9.7 -21.3°
Sets 08:57:47 0° 72° (ENE) 9,143 10.1 -20.3°
